Skip Page Navigation
NASA JPL Caltech
NASA Logo - Jet Propulsion Laboratory + View the NASA Portal
+ Center for Near-Earth Object Studies
JPL Home Earth Solar System Stars & Galaxies Technology
JPL Solar System Dynamics
BODIES ORBITS EPHEMERIDES TOOLS PHYSICAL DATA DISCOVERY FAQ SITE MAP
JPL Small-Body Database Browser
Search: [ help ]  
19486 (1998 HW122)
Classification: Main-belt Asteroid          SPK-ID: 2019486
Ephemeris | Orbit Diagram | Orbital Elements | Mission Design | Physical Parameters | Discovery Circumstances ]

[ show orbit diagram ]
Orbital Elements at Epoch 2459200.5 (2020-Dec-17.0) TDB
Reference: JPL 33 (heliocentric ecliptic J2000)
 Element Value Uncertainty (1-sigma)   Units 
e .04540756870568965 9.1568e-09  
a 2.763292577634814 1.225e-08 au
q 2.637818180061938 2.3473e-08 au
i 9.603608044276482 2.9944e-07 deg
node 89.70744854658969 5.4358e-06 deg
peri 35.53788343465986 4.0051e-05 deg
M 64.7961795433873 3.8191e-05 deg
tp 2458898.514818894172
(2020-Feb-19.01481889)
0.00017802 TDB
period 1677.794369424249
4.59
1.1157e-05
3.055e-08
d
yr
n .2145674145536305 1.4268e-09 deg/d
Q 2.888766975207689 1.2806e-08 au
  Orbit Determination Parameters
   # obs. used (total)      2134  
   data-arc span      13970 days (38.25 yr)  
   first obs. used      1982-12-23  
   last obs. used      2021-03-23  
   planetary ephem.      DE441  
   SB-pert. ephem.      SB441-N16  
   condition code      0  
   norm. resid. RMS      .45711  
   source      ORB  
   producer      Otto Matic  
   solution date      2021-May-04 02:54:14  

Additional Information
 Earth MOID = 1.65978 au 
 Jupiter MOID = 2.18855 au 
 T_jup = 3.319 
[ show covariance matrix ]

Ephemeris | Orbit Diagram | Orbital Elements | Mission Design | Physical Parameters | Discovery Circumstances ]

Physical Parameter Table
Parameter Symbol Value Units Sigma Reference Notes
absolute magnitude H 13.33   n/a MPCxxxxx  
diameter diameter 6.607 km 0.140 urn:nasa:pds:neowise_diameters_albedos::2.0[mainbelt] (http://adsabs.harvard.edu/abs/2011ApJ...741...68M)  
rotation period rot_per 184.437 h n/a LCDB (Rev. 2020-October); Warner et al., 2009 Result based on less than full coverage, so that the period may be wrong by 30 percent or so.
Published Reference List:
[Pal, A.; Szakats, R.; Kiss, C.; Bodi, A.; et al. (2019) Ap. J. Supl. Ser. 247, id.26.]
geometric albedo albedo 0.161   0.038 urn:nasa:pds:neowise_diameters_albedos::2.0[mainbelt] (http://adsabs.harvard.edu/abs/2011ApJ...741...68M)  

19486 (1998 HW122)          Discovered 1998-Apr-23 by LINEAR at Socorro
Reference: 20001211/Numbers.arcLast Updated: 2004-04-19

Alternate Designations
 1998 HW122 = 1982 YE4 = 2000 UB26 
Ephemeris | Orbit Diagram | Orbital Elements | Mission Design | Physical Parameters | Discovery Circumstances ]
ABOUT SSD CREDITS/AWARDS PRIVACY/COPYRIGHT GLOSSARY LINKS
FirstGov 2021-May-13 17:09 UT
(server date/time)  
NASA Home Page
Site Manager:   Ryan S. Park
Webmaster  Alan B. Chamberlin